#timestamp,LO_Frequency,Hit,StdDev 
1550556015.3,286046996.6,N
1550556035.2,286046997.6,N
1550556055.9,286046994.9,N
1550556075.7,286046995.0,N
1550556095.6,286046997.1,N
1550556115.4,286046999.3,N
1550556135.2,286046997.4,N
1550556155.1,286046995.7,N
1550556156.0,286046995.7,Y
1550556175.8,286046997.9,P
1550556195.7,286046996.5,P
1550556215.5,286046996.6,P
1550556235.3,286046999.6,N
1550556255.2,286047001.2,N
1550556275.0,286047001.0,N
1550556275.9,286047001.0,N
1550556295.8,286047002.6,N
1550556315.6,286047004.0,N
1550556335.4,286046999.7,N
1550556355.3,286046998.6,N
1550556375.1,286046998.3,N
1550556395.8,286046999.9,N
1550556415.7,286047003.3,N
1550556435.5,286047005.3,N
1550556455.4,286047003.5,N
1550556475.2,286047003.3,N
1550556495.0,286047005.3,N
1550556495.9,286047005.3,N
1550556515.8,286047003.0,N
1550556535.6,286047002.9,N
1550556555.4,286047003.3,N
1550556575.3,286047003.1,N
1550556595.1,286047003.0,N
1550556615.9,286047003.0,N
1550556635.7,286047000.2,N
1550556655.5,286047000.5,N
1550556675.4,286047000.3,N
1550556695.2,286046998.6,N
1550556715.1,286046998.6,N
1550556716.0,286046998.6,N
1550556735.8,286047000.4,N
1550556755.6,286046998.1,N
1550556775.5,286046999.9,N
1550556795.3,286047001.3,N
1550556815.2,286047003.5,N
1550556835.9,286047004.0,N
1550556855.7,286046999.7,N
1550556875.6,286046998.8,N
1550556895.4,286046999.7,N
1550556915.2,286047000.8,N
1550556935.1,286047003.6,N
1550556936.0,286047003.6,N
1550556955.8,286047001.9,N
1550556975.7,286047001.3,N
1550556995.5,286047003.4,N
1550557015.3,286047004.4,N
1550557035.2,286047004.8,N
1550557055.0,286047005.7,N
1550557055.9,286047005.7,N
1550557075.7,286047002.9,N
1550557095.6,286047003.6,N
1550557115.4,286047001.4,N
1550557135.3,286047003.8,N
1550557155.1,286047003.1,N
1550557175.8,286047002.6,N
1550557195.7,286047001.7,N
1550557215.5,286046999.9,N
1550557235.4,286046998.3,N
1550557255.2,286047001.0,N
1550557275.0,286047000.0,N
1550557275.9,286047000.0,N
1550557295.8,286046999.0,N
1550557315.6,286046999.2,N
1550557335.5,286046998.1,N
1550557355.3,286046998.2,N
1550557375.1,286046999.1,N
1550557395.9,286046998.9,N
1550557415.7,286046996.5,N
1550557435.5,286046998.6,N
1550557455.4,286047002.1,N
1550557475.2,286047001.4,N
1550557495.1,286047001.5,N
1550557496.0,286047001.5,N
1550557515.8,286047000.3,N
1550557535.6,286046999.8,N
1550557555.5,286047001.1,N
1550557575.3,286047000.1,N
1550557595.1,286047001.6,N
1550557615.9,286047001.3,N
1550557635.7,286047002.5,N
1550557655.6,286047002.8,N
1550557675.4,286047001.9,N
1550557695.2,286047002.5,N
1550557715.1,286047000.4,N
1550557716.0,286047000.4,N
1550557735.8,286046999.9,N
1550557755.6,286047003.6,N
1550557775.9,286047004.3,N
1550557795.7,286047001.9,N
1550557815.6,286047001.4,N
1550557835.4,286047005.1,N
1550557855.2,286047001.3,N
1550557875.1,286047004.2,N
1550557876.0,286047004.2,N
1550557895.8,286047001.3,N
1550557915.7,286047002.1,N
1550557935.5,286047002.2,N
1550557955.3,286047002.6,N
1550557975.2,286047001.7,N
1550557995.0,286047003.3,N
1550557995.9,286047003.3,N
1550558015.8,286047004.8,Y
1550558035.6,286047004.0,P
1550558055.4,286047003.6,P
1550558075.3,286047001.3,N
1550558095.1,286047003.3,N
1550558115.9,286047005.6,Y
1550558135.7,286047001.3,P
1550558155.5,286047000.2,N
1550558175.4,286046997.2,N
1550558195.2,286046999.5,N
1550558215.0,286046998.1,N
1550558215.9,286047011.9,Y
1550558235.8,286046999.0,P
1550558255.6,286046996.5,P
1550558275.5,286047001.9,N
1550558295.3,286047001.8,N
1550558315.1,286047002.0,N
1550558335.9,286047002.5,N
1550558355.7,286047002.5,N
1550558375.6,286047000.8,N
1550558395.4,286047001.0,N
1550558415.2,286047000.1,N
1550558435.1,286046999.8,N
1550558436.0,286046999.8,N
1550558455.8,286047000.4,N
1550558475.6,286046998.5,N
1550558495.5,286046999.0,N
1550558515.3,286047001.2,N
1550558535.2,286046997.3,N
1550558555.9,286046997.9,N
1550558575.7,286046996.9,N
1550558595.6,286046998.8,N
1550558615.4,286046996.9,N
1550558635.3,286046999.3,N
1550558655.1,286046999.5,N
1550558675.8,286046996.6,N
1550558695.7,286046999.5,N
1550558715.5,286047000.4,N
1550558735.4,286047001.3,N
1550558755.2,286047003.9,N
1550558775.0,286047001.6,N
1550558775.9,286047001.6,N
1550558795.8,286047002.0,N
1550558815.6,286046999.4,N
1550558835.4,286046996.8,N
1550558855.3,286046995.0,N
1550558875.1,286046997.4,N
1550558895.9,286046996.9,N
1550558915.7,286046998.3,N
1550558935.5,286047002.6,N
1550558955.4,286047004.4,N
1550558975.2,286047001.3,N
1550558995.1,286047002.0,N
1550558996.0,286047002.0,N
1550559015.8,286047001.9,N
1550559035.6,286047001.4,N
1550559055.5,286047002.2,N
1550559075.3,286047002.0,N
1550559095.2,286047001.8,N
1550559115.9,286047003.9,N
1550559135.7,286047003.7,N
1550559155.6,286047003.7,N
1550559175.4,286047004.3,N
1550559195.2,286047005.4,N
1550559215.1,286047003.8,N
1550559216.0,286047003.8,N
1550559235.8,286047002.6,N
1550559255.7,286046999.7,N
1550559275.5,286047001.1,N
1550559295.3,286046998.2,N
1550559315.2,286047001.5,N
1550559335.0,286047001.9,N
1550559335.9,286047001.9,N
1550559355.8,286047001.6,N
1550559375.6,286047002.2,N
1550559395.4,286047001.8,N
1550559415.3,286047002.4,N
1550559435.1,286046999.9,N
1550559455.8,286047001.1,N
1550559475.7,286047002.4,N
1550559495.5,286046999.9,N
1550559515.4,286047000.3,N
1550559535.2,286047000.3,N
1550559555.0,286046999.7,N
1550559555.9,286046999.7,N
1550559575.8,286047002.7,N
1550559595.6,286047000.4,N
